TIANTONG-1 3

Last updated on Tue Jul 08 2025 00:02:48 GMT+0000 (Coordinated Universal Time)

1 47321U 21003A 25188.57974689 -.00000134 00000+0 00000+0 0 9999 2 47321 2.1738 322.1325 0001612 171.0972 82.7437 1.00269957 16507
UTC large
Height (km)
Speed (km/s)
/
Latitude / Longitude
Inclination (degrees)
Orbital Period (minutes)
Azimuth
Elevation
Range (km)
Doppler Factor

Next 0 passes for location: London (51.5072 / 0.1276)

Sorry there are no passes over London.